Tracking 17925 objects as of 21-January-2017
HD Live streaming from Space Station
objects crossing your sky now

CZ-4B DEB

Track CZ-4B DEB now!
10-day predictions


NORAD ID: 36290
Int'l Code: 2008-053L
Perigee: 566.7 km
Apogee: 593.8 km
Inclination: 97.6 °
Period: 96.1 minutes
Semi major axis: 6951 km
RCS: 0.0218 m2 (small)
Launch date: October 25, 2008
Source: People's Republic of China (PRC)
Launch site: Taiyaun Space Center, China (TSC)

Note: This is SATELLITE DEBRIS
Your satellite tracking list
Your tracking list is empty





NASA's NSSDC Master Catalog

Two Line Element Set (TLE):
1 36290U 08053L   17020.18979722 +.00000867 +00000-0 +78115-4 0  9998
2 36290 097.5816 013.0729 0019449 316.1826 043.7853 14.97991561213990
Source of the keplerian elements: AFSPC